Flag for U.S.A. Weather past 2 weeks in Atlantic City, New Jersey, U.S.A.

Now
55 °F

Sunny.


Feels Like: 51 °F
Forecast: 39 / 49 °F
Wind: 14 mph from South

Location: Atlantic City International Airport

Current Time: Mar 31, 2015 at 1:17:13 PM

Latest Report: Mar 31, 2015 at 12:54 PM


Visibility: 10 mi

Pressure: 29.80 "Hg

Humidity: 37%

Dew point: 29 °F

Location of Atlantic CityLocation

Historic Weather in Atlantic City — Graph

°F

Atlantic City temperature yesterday

Maximum temperature yesterday: 57 °F (at 2:54 PM)
Minimum temperature yesterday: 34 °F (at 12:54 AM)
Average temperature yesterday: 44 °F

Past Weeks' High & Low Weather Summary

 TemperatureHumidityPressure
High70 °F (Mar 17, 12:54 PM)100% (Mar 26, 11:00 PM)30.42 "Hg (Mar 26, 11:00 PM)
Low19 °F (Mar 19, 4:54 AM)18% (Mar 19, 1:54 PM)29.55 "Hg (Mar 17, 12:54 PM)
Average40 °F60%30.05 "Hg
* Reported Mar 16 10:54 AM — Mar 31 10:54 AM, Atlantic City, Weather by CustomWeather, © 2015

Note: Actual official high and low records may vary slightly from our data, if they occured in-between our weather recording intervals... More about our weather records

Advertising

Atlantic City weather history for previous 24 hours

 ConditionsComfort  
Time TempWeatherWind HumidityBarometerVisibility
10:54 AM
Tue, Mar 31
51 °FMore clouds than sun.9 mph33%29.90 "Hg10 mi
9:54 AM49 °FMostly cloudy.9 mph43%29.92 "Hg10 mi
8:54 AM47 °FSunny.6 mph46%29.93 "Hg10 mi
7:54 AM39 °FSunny.3 mph60%29.93 "Hg10 mi
6:54 AM35 °FClear.No wind64%29.92 "Hg10 mi
5:54 AM33 °FClear.5 mph70%29.90 "Hg10 mi
4:54 AM40 °FClear.7 mph55%29.88 "Hg10 mi
3:54 AM44 °FClear.8 mph45%29.87 "Hg10 mi
2:54 AM44 °FClear.7 mph43%29.87 "Hg10 mi
1:54 AM44 °FClear.8 mph43%29.88 "Hg10 mi
12:54 AM45 °FClear.6 mph42%29.89 "Hg10 mi
11:54 PM
Mon, Mar 30
40 °FClear.6 mph55%29.91 "Hg10 mi
10:54 PM43 °FClear.6 mph51%29.91 "Hg10 mi
9:54 PM47 °FClear.N/A42%29.90 "Hg10 mi
8:54 PM49 °FClear.7 mph39%29.89 "Hg10 mi
7:54 PM49 °FPartly sunny.8 mph39%29.85 "Hg10 mi
6:54 PM54 °FScattered clouds.12 mph34%29.83 "Hg10 mi
5:54 PM56 °FMore clouds than sun.12 mph34%29.82 "Hg10 mi
4:54 PM55 °FMostly cloudy.14 mph37%29.81 "Hg10 mi
3:54 PM56 °FPartly sunny.16 mph34%29.80 "Hg10 mi
2:54 PM57 °FScattered clouds.23 mph37%29.81 "Hg10 mi
1:54 PM53 °FPassing clouds.13 mph43%29.84 "Hg10 mi
Weather by CustomWeather, © 2015

See weather overviewHow to use our weather pages